Weather History for Dallas/Ft Worth, TX

Change the Weather History Date:

Saturday, June 2, 2012

  Actual Average Record
Temperature  
Mean Temperature 84 °F 78 °F  
Max Temperature 96 °F 88 °F 104 °F (1910)
Min Temperature 72 °F 69 °F 52 °F (1919)
Degree Days  
Heating Degree Days 0 0  
Month to date heating degree days 0 0  
Since 1 June heating degree days 0 0  
Since 1 July heating degree days 1777 2284  
Cooling Degree Days 19 14  
Month to date cooling degree days 28 27  
Year to date cooling degree days 715 449  
Since 1 June cooling degree days 28 27  
Growing Degree Days 34 (Base 50)    
Moisture  
Dew Point 61 °F    
Average Humidity 50    
Maximum Humidity 69    
Minimum Humidity 31    
Precipitation  
Precipitation 0.00 in 0.15 in 2.50 in (1928)
Month to date precipitation 0.00 0.30  
Year to date precipitation 19.70 16.55  
Sea Level Pressure  
Sea Level Pressure 29.83 in    
Wind  
Wind Speed 11 mph (South)    
Max Wind Speed 20 mph    
Max Gust Speed 24 mph    
Visibility 10 miles    
Events      
T = Trace of Precipitation, MM = Missing Value Source: NWS Daily Summary

Daily Weather History Graph

Daily Weather History Graph

Search for Another Location

Airport:

Trip Planner

Search our weather history database for the weather conditions in past years. The results will help you decide how hot, cold, wet, or windy it might be!

Date:

Astronomy

Jun. 02, 2012 Rise Set
Actual Time 6:20 AM CDT 8:32 PM CDT
Civil Twilight 5:51 AM CDT 9:00 PM CDT
Nautical Twilight 5:17 AM CDT 9:35 PM CDT
Astronomical Twilight 4:40 AM CDT 10:12 PM CDT
Moon 6:51 PM CDT (6/2) 4:35 AM CDT (6/2)
Length of Visible Light 15h 08m
Length of Day
14h 12m
Waxing Gibbous, 95% of the Moon is Illuminated
Jun 2
Waxing Gibbous
Jun 4
Full
Jun 11
Last Quarter
Jun 19
New
Jun 26
First Quarter

Hourly Weather History & Observations

Time (CDT) Temp. Heat Index Dew Point Humidity Pressure Visibility Wind Dir Wind Speed Gust Speed Precip Events Conditions
12:53 AM 75.0 °F - 53.1 °F 46% 29.87 in 10.0 mi SSE 11.5 mph - N/A   Overcast
1:53 AM 73.9 °F - 53.1 °F 48% 29.84 in 10.0 mi SSE 11.5 mph - N/A   Overcast
2:53 AM 73.9 °F - 55.0 °F 52% 29.83 in 10.0 mi South 10.4 mph - N/A   Overcast
3:53 AM 73.9 °F - 55.0 °F 52% 29.84 in 10.0 mi South 9.2 mph - N/A   Overcast
4:53 AM 73.9 °F - 55.0 °F 52% 29.84 in 10.0 mi South 11.5 mph - N/A   Overcast
5:53 AM 72.0 °F - 57.0 °F 59% 29.85 in 10.0 mi SSE 9.2 mph - N/A   Overcast
6:53 AM 72.0 °F - 60.1 °F 66% 29.88 in 10.0 mi South 5.8 mph - N/A   Overcast
7:53 AM 73.9 °F - 62.1 °F 66% 29.89 in 10.0 mi South 6.9 mph - N/A   Overcast
8:53 AM 75.9 °F - 64.0 °F 67% 29.88 in 10.0 mi South 11.5 mph - N/A   Overcast
9:53 AM 80.1 °F 82.1 °F 66.0 °F 62% 29.88 in 10.0 mi South 10.4 mph - N/A   Mostly Cloudy
10:53 AM 86.0 °F 88.8 °F 66.9 °F 53% 29.88 in 10.0 mi SW 10.4 mph - N/A   Mostly Cloudy
11:53 AM 89.1 °F 92.9 °F 68.0 °F 50% 29.87 in 10.0 mi SSW 13.8 mph - N/A   Mostly Cloudy
12:53 PM 91.9 °F 95.9 °F 68.0 °F 45% 29.86 in 10.0 mi SW 15.0 mph - N/A   Mostly Cloudy
1:53 PM 93.0 °F 97.4 °F 68.0 °F 44% 29.84 in 10.0 mi South 9.2 mph 19.6 mph N/A   Mostly Cloudy
2:53 PM 95.0 °F 97.9 °F 66.0 °F 38% 29.82 in 10.0 mi SW 9.2 mph 19.6 mph N/A   Scattered Clouds
3:53 PM 95.0 °F 97.4 °F 64.9 °F 37% 29.80 in 10.0 mi South 15.0 mph 20.7 mph N/A   Scattered Clouds
4:53 PM 95.0 °F 97.9 °F 66.0 °F 38% 29.79 in 10.0 mi South 13.8 mph - N/A   Scattered Clouds
5:53 PM 91.9 °F 92.9 °F 63.0 °F 38% 29.78 in 10.0 mi South 13.8 mph - N/A   Scattered Clouds
6:53 PM 91.9 °F 91.5 °F 60.1 °F 34% 29.77 in 10.0 mi South 12.7 mph - N/A   Mostly Cloudy
7:53 PM 89.1 °F 88.2 °F 59.0 °F 36% 29.77 in 10.0 mi SSE 9.2 mph - N/A   Scattered Clouds
8:53 PM 87.1 °F 84.9 °F 53.1 °F 31% 29.78 in 10.0 mi SSE 10.4 mph - N/A   Scattered Clouds
9:53 PM 84.9 °F 84.1 °F 57.2 °F 39% 29.79 in 10.0 mi South 9.2 mph - N/A   Partly Cloudy
10:53 PM 84.0 °F 83.8 °F 59.0 °F 43% 29.82 in 10.0 mi South 11.5 mph - N/A   Partly Cloudy
11:53 PM 82.0 °F 83.0 °F 62.1 °F 51% 29.83 in 10.0 mi South 6.9 mph - N/A   Clear